AC0TG-1 Weather Reports


time (UTC)temp
F
wind
direction
speed
knots
gust
knots
rain 1hr
in
rain 24hr
in
rain mn
in
humidity
%
barometer
mb
20220627204150 94 90 9.6 9.6 0.00 0.00 0.00 45 1021.3
20220627203650 93 45 0.9 7.0 0.00 0.00 0.00 46 1021.6
20220627203150 94 45 7.0 7.0 0.00 0.00 0.00 46 1021.6
20220627202651 94 45 5.2 9.6 0.00 0.00 0.00 45 1021.6
20220627202150 95 67 9.6 9.6 0.00 0.00 0.00 44 1021.6
20220627201650 96 67 5.2 5.2 0.00 0.00 0.00 44 1021.6
20220627201151 95 45 4.3 4.3 0.00 0.00 0.00 45 1021.6
20220627200651 94 45 1.7 5.2 0.00 0.00 0.00 46 1021.6
20220627200151 95 45 5.2 7.0 0.00 0.00 0.00 45 1022.0
20220627195651 95 67 5.2 5.2 0.00 0.00 0.00 45 1022.0
20220627195151 96 45 5.2 6.1 0.00 0.00 0.00 44 1022.0
20220627194651 95 0 6.1 6.1 0.00 0.00 0.00 47 1022.0
20220627194151 94 22 5.2 5.2 0.00 0.00 0.00 45 1022.0
20220627193651 95 0 2.6 2.6 0.00 0.00 0.00 46 1022.3
20220627193151 96 45 2.6 7.0 0.00 0.00 0.00 46 1022.3
20220627192651 94 22 7.0 7.0 0.00 0.00 0.00 47 1022.3
20220627192151 94 45 4.3 7.0 0.00 0.00 0.00 48 1022.3
20220627191651 92 45 5.2 7.0 0.00 0.00 0.00 50 1022.3
20220627191151 93 67 7.0 7.8 0.00 0.00 0.00 49 1022.3
20220627190651 93 22 7.8 8.7 0.00 0.00 0.00 48 1022.3
20220627190151 92 22 8.7 8.7 0.00 0.00 0.00 51 1022.3
20220627185651 92 22 6.1 6.1 0.00 0.00 0.00 51 1022.6
20220627185151 93 22 5.2 5.2 0.00 0.00 0.00 50 1022.6
20220627184651 91 22 4.3 4.3 0.00 0.00 0.00 54 1022.6
20220627184151 89 45 4.3 5.2 0.00 0.00 0.00 54 1022.6
20220627183651 89 45 5.2 6.1 0.00 0.00 0.00 54 1022.6
20220627183151 89 45 6.1 6.1 0.00 0.00 0.00 54 1022.6
20220627182651 89 45 3.5 4.3 0.00 0.00 0.00 54 1022.6
20220627182151 89 45 4.3 4.3 0.00 0.00 0.00 54 1022.6
20220627181651 89 67 2.6 6.1 0.00 0.00 0.00 54 1023.0
20220627181151 89 45 6.1 6.1 0.00 0.00 0.00 53 1023.0
20220627180651 90 22 5.2 5.2 0.00 0.00 0.00 53 1023.0
20220627180151 91 45 3.5 6.1 0.00 0.00 0.00 53 1023.0
20220627175651 89 67 5.2 5.2 0.00 5.20 0.00 55 1023.0
20220627175151 89 45 5.2 6.1 0.00 5.20 0.00 54 1023.0
20220627174651 91 45 5.2 6.1 0.00 5.20 0.00 52 1023.0
20220627174151 91 45 6.1 7.0 0.00 5.20 0.00 51 1023.0
20220627173651 92 90 6.1 6.1 0.00 5.20 0.00 50 1023.0
20220627173329 92 45 5.2 6.1 0.00 5.20 0.00 51 1023.0
20220627173151 92 45 5.2 6.1 0.00 5.20 0.00 51 1023.0
20220627172651 91 135 6.1 6.1 0.00 5.20 0.00 52 1023.0
20220627172151 92 45 5.2 7.8 0.00 5.20 0.00 51 1023.0
20220627171651 93 90 4.3 6.1 0.00 5.20 0.00 49 1023.0
20220627171151 94 45 3.5 8.7 0.00 5.20 0.00 49 1023.0
20220627170651 93 90 5.2 8.7 0.00 5.20 0.00 50 1023.0
20220627170236 93 45 7.0 7.0 0.00 5.20 0.00 50 1023.3
20220627170151 93 45 7.0 7.0 0.00 5.20 0.00 50 1023.3
20220627165651 93 135 7.0 8.7 0.00 5.20 0.00 51 1023.0
20220627165151 92 112 8.7 8.7 0.00 5.20 0.00 53 1023.0
20220627164651 90 45 6.1 7.0 0.00 5.20 0.00 54 1023.0
20220627164151 90 135 7.0 7.0 0.00 5.20 0.00 54 1023.0
20220627163651 90 67 4.3 10.4 0.00 5.20 0.00 53 1023.0
20220627163151 90 112 10.4 10.4 0.00 5.20 0.00 53 1023.0
20220627162651 90 112 10.4 11.3 0.00 5.20 0.00 54 1023.0
20220627162151 91 90 7.0 7.8 0.00 5.20 0.00 53 1023.0
20220627161651 89 90 5.2 7.0 0.00 5.20 0.00 56 1023.0
20220627161151 89 45 7.0 7.0 0.00 5.20 0.00 56 1023.0
20220627160651 89 45 6.1 7.8 0.00 5.20 0.00 55 1023.0
20220627160151 89 112 7.8 10.4 0.00 5.20 0.00 55 1023.3
20220627155651 88 112 5.2 11.3 0.00 5.68 0.00 57 1023.3
20220627155151 87 67 9.6 11.3 0.00 5.68 0.00 57 1023.3
20220627154651 86 45 6.1 12.2 0.00 5.68 0.00 60 1023.3
20220627154151 85 112 12.2 12.2 0.00 5.68 0.00 61 1023.0
20220627153651 85 112 7.8 7.8 0.00 5.68 0.00 61 1023.3
20220627153151 85 112 7.8 13.9 0.00 5.68 0.00 61 1023.3
20220627152651 84 135 13.0 13.0 0.00 5.68 0.00 62 1023.3
20220627152151 83 67 8.7 9.6 0.00 5.68 0.00 63 1023.3
20220627151651 84 67 4.3 6.1 0.00 5.68 0.00 62 1023.3
20220627151151 84 67 3.5 7.0 0.00 5.68 0.00 62 1023.7
20220627150651 84 67 7.0 7.0 0.00 5.68 0.00 60 1023.7
20220627150151 84 90 7.0 7.8 0.00 5.68 0.00 60 1023.7
20220627145651 85 67 7.0 7.0 0.00 0.89 0.00 60 1023.3
20220627145151 84 45 4.3 7.8 0.00 0.89 0.00 60 1023.7
20220627144651 85 90 6.1 7.0 0.00 0.89 0.00 59 1023.3
20220627144151 86 67 4.3 7.8 0.00 0.89 0.00 58 1023.7
20220627143651 86 67 4.3 7.0 0.00 0.89 0.00 57 1023.7
20220627143151 84 45 4.3 6.1 0.00 0.89 0.00 59 1023.3
20220627142651 84 45 6.1 10.4 0.00 0.89 0.00 57 1023.3
20220627142151 84 67 10.4 10.4 0.00 0.89 0.00 57 1023.7
20220627141651 83 90 7.0 7.0 0.00 0.89 0.00 58 1023.3
20220627141151 83 45 6.1 6.1 0.00 0.89 0.00 57 1023.3
20220627140652 83 45 4.3 10.4 0.00 0.89 0.00 58 1023.3
20220627140152 81 22 6.1 6.1 0.00 0.89 0.00 57 1023.3
20220627135652 81 67 6.1 6.1 0.00 4.96 0.00 57 1023.0
20220627135152 80 45 5.2 7.0 0.00 4.96 0.00 58 1023.3
20220627134652 79 22 4.3 7.0 0.00 4.96 0.00 59 1023.3
20220627134152 78 45 6.1 7.0 0.00 4.96 0.00 58 1023.0
20220627133652 78 45 7.0 7.0 0.00 4.96 0.00 58 1023.0
20220627133152 78 22 6.1 6.1 0.00 4.96 0.00 57 1023.3
20220627132652 78 22 4.3 4.3 0.00 4.96 0.00 57 1023.3
20220627132152 77 45 3.5 5.2 0.00 4.96 0.00 58 1023.0
20220627131652 77 22 4.3 4.3 0.00 4.96 0.00 57 1023.0
20220627131152 77 22 3.5 5.2 0.00 4.96 0.00 57 1023.3
20220627130652 77 45 5.2 6.1 0.00 4.96 0.00 58 1023.0
20220627130152 76 0 6.1 6.1 0.00 4.96 0.00 57 1023.0
20220627125652 76 22 5.2 6.1 0.00 4.96 0.00 57 1023.0
20220627125152 76 22 1.7 6.1 0.00 4.96 0.00 57 1023.0
20220627124652 77 45 6.1 6.1 0.00 4.96 0.00 55 1023.0
20220627124152 78 0 5.2 5.2 0.00 4.96 0.00 54 1023.0
20220627123652 78 22 5.2 5.2 0.00 4.96 0.00 54 1022.6
20220627123152 77 22 5.2 6.1 0.00 4.96 0.00 55 1022.6
20220627122652 75 22 5.2 5.2 0.00 4.96 0.00 56 1022.6
20220627122152 75 22 3.5 6.1 0.00 4.96 0.00 56 1022.3
20220627121652 74 22 5.2 5.2 0.00 4.96 0.00 58 1022.6
20220627121152 74 22 5.2 6.1 0.00 4.96 0.00 58 1022.6
20220627120652 74 0 6.1 6.1 0.00 4.96 0.00 58 1022.6
20220627120152 73 22 4.3 5.2 0.00 4.96 0.00 60 1022.6
20220627115652 73 22 2.6 2.6 0.00 4.96 0.00 61 1022.3
20220627115152 71 0 2.6 2.6 0.00 4.96 0.00 62 1022.3
20220627114652 70 22 2.6 4.3 0.00 4.96 0.00 63 1022.3
20220627114152 70 22 4.3 4.3 0.00 4.96 0.00 64 1022.3
20220627113652 69 22 3.5 4.3 0.00 4.96 0.00 65 1022.3
20220627113152 69 22 1.7 3.5 0.00 4.96 0.00 66 1022.3
20220627112652 69 0 3.5 3.5 0.00 4.96 0.00 66 1022.3
20220627112152 68 0 2.6 3.5 0.00 4.96 0.00 66 1022.3
20220627111652 68 22 1.7 3.5 0.00 4.96 0.00 66 1022.3
20220627111152 68 0 3.5 3.5 0.00 4.96 0.00 66 1022.3
20220627110652 69 0 3.5 3.5 0.00 4.96 0.00 66 1022.3
20220627110152 69 22 0.9 1.7 0.00 4.96 0.00 66 1022.0
20220627110109 69 22 1.7 2.6 0.00 4.96 0.00 66 1022.0
20220627105652 69 22 1.7 2.6 0.00 4.96 0.00 66 1022.0
20220627105152 69 0 1.7 3.5 0.00 4.96 0.00 66 1022.0
20220627104652 69 22 3.5 3.5 0.00 4.96 0.00 66 1022.0
20220627104152 69 0 3.5 4.3 0.00 4.96 0.00 66 1022.0
20220627103652 69 22 3.5 3.5 0.00 4.96 0.00 66 1022.0
20220627103152 69 0 2.6 4.3 0.00 4.96 0.00 66 1022.0
20220627102652 69 22 4.3 4.3 0.00 4.96 0.00 66 1022.0
20220627102152 69 0 2.6 2.6 0.00 4.96 0.00 66 1022.3
20220627101652 69 0 0.9 1.7 0.00 4.96 0.00 66 1022.0
20220627101152 69 0 1.7 1.7 0.00 4.96 0.00 66 1022.0
20220627100652 69 337 0.9 2.6 0.00 4.96 0.00 67 1022.0
20220627100152 69 0 2.6 5.2 0.00 4.96 0.00 67 1022.0
20220627095652 69 0 2.6 5.2 0.00 4.96 0.00 67 1022.0
20220627095152 70 0 1.7 2.6 0.00 4.96 0.00 67 1022.3
20220627094652 70 0 2.6 2.6 0.00 4.96 0.00 67 1022.0
20220627094152 70 337 0.9 0.9 0.00 4.96 0.00 67 1022.0
20220627093652 70 0 0.0 1.7 0.00 4.96 0.00 67 1022.0
20220627093152 70 0 0.0 0.0 0.00 4.96 0.00 67 1022.0
20220627092652 70 0 0.0 1.7 0.00 4.96 0.00 67 1022.0
20220627092152 70 337 0.0 0.9 0.00 4.96 0.00 67 1022.0
20220627091652 70 22 0.9 3.5 0.00 4.96 0.00 67 1022.0
20220627091152 71 22 0.9 1.7 0.00 4.96 0.00 67 1022.0
20220627090652 71 0 0.9 3.5 0.00 4.96 0.00 68 1022.0
20220627090153 71 0 1.7 1.7 0.00 4.96 0.00 68 1022.0
20220627085652 71 22 1.7 2.6 0.00 4.96 0.00 68 1022.0
20220627085152 71 0 1.7 1.7 0.00 4.96 0.00 68 1022.0
20220627084652 71 0 1.7 1.7 0.00 4.96 0.00 68 1022.0
20220627084152 71 0 1.7 1.7 0.00 4.96 0.00 68 1022.0
20220627083652 72 0 1.7 1.7 0.00 4.96 0.00 69 1022.0
20220627083152 72 0 1.7 4.3 0.00 4.96 0.00 69 1022.0
20220627082652 72 0 1.7 3.5 0.00 4.96 0.00 69 1022.0
20220627082152 72 0 1.7 1.7 0.00 4.96 0.00 69 1022.0
20220627081652 72 0 1.7 3.5 0.00 4.96 0.00 69 1022.0
20220627081153 72 0 0.0 3.5 0.00 4.96 0.00 69 1022.0
20220627080652 73 0 2.6 3.5 0.00 4.96 0.00 69 1022.0
20220627080153 73 0 1.7 4.3 0.00 4.96 0.00 69 1021.6
20220627075653 73 337 4.3 4.3 0.00 4.96 0.00 69 1022.0
20220627075153 73 0 3.5 4.3 0.00 4.96 0.00 70 1021.6
20220627074653 73 0 4.3 4.3 0.00 4.96 0.00 70 1021.6
20220627074153 73 0 4.3 4.3 0.00 4.96 0.00 70 1021.6
20220627073653 73 0 2.6 2.6 0.00 4.96 0.00 71 1021.6
20220627073153 73 0 2.6 6.1 0.00 4.96 0.00 72 1021.6
20220627072653 73 22 6.1 6.1 0.00 4.96 0.00 72 1021.6
20220627072153 73 0 0.9 1.7 0.00 4.96 0.00 73 1021.6
20220627071653 73 0 1.7 2.6 0.00 4.96 0.00 73 1021.6
20220627071153 74 337 1.7 2.6 0.00 4.96 0.00 73 1021.6
20220627070653 74 337 2.6 2.6 0.00 4.96 0.00 73 1021.3
20220627070153 74 0 2.6 2.6 0.00 4.96 0.00 72 1021.6
20220627065653 74 22 0.9 1.7 0.00 4.96 0.00 72 1021.6
20220627065153 74 22 0.9 0.9 0.00 4.96 0.00 72 1021.6
20220627064653 74 22 0.0 1.7 0.00 4.96 0.00 71 1022.0
20220627064153 74 22 1.7 1.7 0.00 4.96 0.00 71 1022.0
20220627063653 75 22 0.9 2.6 0.00 4.96 0.00 72 1021.6
20220627063153 75 22 2.6 3.5 0.00 4.96 0.00 72 1021.6
20220627062653 75 0 3.5 3.5 0.00 4.96 0.00 71 1021.6
20220627062153 75 0 2.6 2.6 0.00 4.96 0.00 71 1021.6
20220627061653 75 0 0.9 0.9 0.00 4.96 0.00 70 1021.6
20220627061153 75 0 0.9 2.6 0.00 4.96 0.00 70 1021.6
20220627060653 76 337 1.7 1.7 0.00 4.96 0.00 69 1021.6
20220627060153 76 0 0.0 0.0 0.00 4.96 0.00 69 1021.6
20220627055653 76 0 0.0 0.0 0.00 5.27 0.00 69 1021.6
20220627055153 77 22 0.0 0.0 0.00 5.27 0.00 68 1021.6
20220627054653 77 22 0.0 0.9 0.00 5.27 0.00 68 1021.6
20220627054153 77 45 0.9 1.7 0.00 5.27 0.00 68 1021.6
20220627053653 77 45 0.9 1.7 0.00 5.27 0.00 68 1021.6
20220627053153 77 45 0.9 0.9 0.00 5.27 0.00 67 1021.6
20220627052653 78 45 0.9 3.5 0.00 5.27 0.00 67 1021.6
20220627052153 78 22 3.5 3.5 0.00 5.27 0.00 66 1021.6
20220627051653 78 45 0.9 7.0 0.00 5.27 0.00 66 1021.6
20220627051153 78 45 7.0 7.0 0.00 5.27 0.00 66 1021.6
20220627050653 78 45 2.6 6.1 0.00 5.27 0.00 65 1021.6
20220627050153 79 67 6.1 6.1 0.00 5.27 0.00 65 1021.6
20220627045653 79 67 6.1 6.1 0.00 0.47 0.00 64 1021.6
20220627045153 79 67 3.5 7.8 0.00 0.47 0.00 64 1021.6
20220627044653 79 90 7.8 7.8 0.00 0.47 0.00 64 1021.6
20220627044153 80 90 2.6 5.2 0.00 0.47 0.00 64 1021.6
20220627043653 80 67 4.3 4.3 0.00 0.47 0.00 63 1021.6
20220627043153 80 45 1.7 4.3 0.00 0.47 0.00 63 1021.6
20220627042653 81 45 4.3 7.0 0.00 0.47 0.00 63 1021.6
20220627042153 82 67 6.1 6.1 0.00 0.47 0.00 62 1021.6
20220627041653 82 67 6.1 8.7 0.00 0.47 0.00 62 1021.6
20220627041153 82 67 8.7 8.7 0.00 0.47 0.00 63 1021.6
20220627040653 81 67 7.0 7.0 0.00 0.47 0.00 64 1021.3
20220627040153 81 45 7.0 7.0 0.00 0.47 0.00 64 1021.3
20220627035653 81 45 5.2 7.8 0.00 5.67 0.00 64 1021.3
20220627035153 82 45 7.0 7.0 0.00 5.67 0.00 63 1020.9
20220627034653 82 22 6.1 6.1 0.00 5.67 0.00 63 1020.9
20220627034153 82 22 6.1 7.0 0.00 5.67 0.00 63 1021.3
20220627033653 82 22 6.1 8.7 0.00 5.67 0.00 62 1020.9
20220627033153 82 22 8.7 8.7 0.00 5.67 0.00 62 1020.6
20220627032653 82 337 6.1 8.7 0.00 5.67 0.00 62 1020.9
20220627032153 83 0 8.7 8.7 0.00 5.67 0.00 62 1020.6
20220627031653 83 45 7.8 13.9 0.00 5.67 0.00 62 1020.6
20220627031153 83 0 13.9 13.9 0.00 5.67 0.00 62 1020.6
20220627030653 84 22 5.2 13.0 0.00 5.67 0.00 62 1020.6
20220627030153 84 0 13.0 13.0 0.00 5.67 0.00 62 1020.3
20220627025653 84 22 6.1 8.7 0.00 0.87 0.00 63 1020.3
20220627025153 84 337 6.1 6.1 0.00 0.87 0.00 63 1020.3
20220627024653 84 45 4.3 10.4 0.00 0.87 0.00 63 1020.3
20220627024153 84 0 5.2 8.7 0.00 0.87 0.00 63 1020.3
20220627023653 85 22 7.8 7.8 0.00 0.87 0.00 63 1020.3
20220627023153 85 22 7.0 8.7 0.00 0.87 0.00 63 1020.3
20220627022653 85 0 3.5 6.1 0.00 0.87 0.00 63 1020.3
20220627022153 85 22 5.2 7.8 0.00 0.87 0.00 62 1020.3
20220627021653 85 0 7.0 7.0 0.00 0.87 0.00 62 1020.3
20220627021153 85 22 6.1 11.3 0.00 0.87 0.00 61 1019.9
20220627020653 86 22 5.2 8.7 0.00 0.87 0.00 61 1019.6
20220627020153 86 0 7.0 7.0 0.00 0.87 0.00 61 1019.6
20220627015654 87 0 6.1 7.0 0.00 6.07 0.00 60 1019.6
20220627015153 87 22 6.1 7.8 0.00 6.07 0.00 59 1019.3
20220627014654 88 22 7.8 12.2 0.00 6.07 0.00 60 1019.3
20220627014154 88 0 12.2 12.2 0.00 6.07 0.00 58 1018.9
20220627013654 89 0 6.1 6.1 0.00 6.07 0.00 56 1018.9
20220627013154 89 22 4.3 7.8 0.00 6.07 0.00 54 1018.9
20220627012654 89 22 7.0 7.0 0.00 6.07 0.00 53 1018.6
20220627012154 90 22 2.6 2.6 0.00 6.07 0.00 52 1018.6
20220627011654 91 22 2.6 5.2 0.00 6.07 0.00 51 1018.6
20220627011154 91 0 5.2 5.2 0.00 6.07 0.00 51 1018.2
20220627010654 91 45 5.2 9.6 0.00 6.07 0.00 50 1018.6
20220627010154 91 45 3.5 6.1 0.00 6.07 0.00 50 1018.2
20220627005654 92 0 6.1 6.1 0.00 6.07 0.00 49 1018.2
20220627005154 92 22 4.3 8.7 0.00 6.07 0.00 49 1018.6
20220627004654 93 0 5.2 10.4 0.00 6.07 0.00 49 1018.2
20220627004154 93 22 5.2 6.1 0.00 6.07 0.00 49 1018.2
20220627003654 94 0 5.2 5.2 0.00 6.07 0.00 48 1018.2
20220627003154 94 0 5.2 6.1 0.00 6.07 0.00 46 1018.2
20220627002654 94 0 5.2 6.1 0.00 6.07 0.00 45 1018.2
20220627002154 94 22 5.2 5.2 0.00 6.07 0.00 45 1018.2
20220627001654 94 0 3.5 6.1 0.00 6.07 0.00 45 1017.9
20220627001154 94 0 6.1 6.1 0.00 6.07 0.00 45 1018.2
20220627000654 93 45 6.1 6.1 0.00 6.07 0.00 43 1018.2
20220627000154 94 22 5.2 6.1 0.00 6.07 0.00 43 1017.9
20220626235654 94 22 6.1 6.1 0.00 6.07 0.00 42 1017.9
20220626235154 94 22 6.1 7.0 0.00 6.07 0.00 41 1017.9
20220626234656 95 45 5.2 6.1 0.00 6.07 0.00 41 1017.9
20220626234154 95 22 5.2 12.2 0.00 6.07 0.00 40 1017.9
20220626233654 97 45 6.1 6.1 0.00 6.07 0.00 40 1017.6
20220626233154 97 22 5.2 6.1 0.00 6.07 0.00 39 1017.6
20220626232654 97 45 5.2 10.4 0.00 6.07 0.00 39 1017.6
20220626232154 98 22 9.6 9.6 0.00 6.07 0.00 39 1017.6
20220626231654 98 0 6.1 7.8 0.00 6.07 0.00 40 1017.2
20220626231154 99 22 7.8 7.8 0.00 6.07 0.00 40 1017.2
20220626230656 100 0 7.0 7.0 0.00 6.07 0.00 39 1017.2
20220626230154 100 0 7.0 7.0 0.00 6.07 0.00 37 1016.9
20220626225654 100 22 3.5 4.3 0.00 6.07 0.00 37 1017.2
20220626225154 100 337 4.3 7.8 0.00 6.07 0.00 37 1017.2
20220626224654 99 0 6.1 6.1 0.00 6.07 0.00 37 1017.2
20220626224154 99 45 3.5 3.5 0.00 6.07 0.00 37 1017.2
20220626223654 99 22 2.6 6.1 0.00 6.07 0.00 36 1017.6
20220626223154 101 45 3.5 6.1 0.00 6.07 0.00 35 1017.2
20220626222656 101 22 6.1 7.0 0.00 6.07 0.00 35 1017.6
20220626222154 101 22 5.2 8.7 0.00 6.07 0.00 35 1017.6
20220626221654 101 337 8.7 8.7 0.00 6.07 0.00 34 1017.6
20220626221154 104 337 5.2 6.1 0.00 6.07 0.00 32 1017.6
20220626220654 104 315 6.1 6.1 0.00 6.07 0.00 32 1017.6
20220626220154 104 22 3.5 3.5 0.00 6.07 0.00 32 1017.6
20220626215654 104 22 3.5 6.1 0.00 6.07 0.00 32 1017.6
20220626215154 105 45 6.1 7.8 0.00 6.07 0.00 32 1017.9
20220626214656 104 247 0.9 2.6 0.00 6.07 0.00 31 1017.9
20220626214154 104 270 1.7 5.2 0.00 6.07 0.00 31 1017.9
20220626213654 104 0 5.2 8.7 0.00 6.07 0.00 32 1017.9
20220626213154 104 22 1.7 6.1 0.00 6.07 0.00 32 1017.9
20220626212654 104 0 6.1 8.7 0.00 6.07 0.00 31 1017.9
20220626212154 105 0 6.1 6.1 0.00 6.07 0.00 31 1017.9
20220626211654 105 22 1.7 5.2 0.00 6.07 0.00 31 1017.9
20220626211154 106 0 0.0 12.2 0.00 6.07 0.00 30 1017.9
20220626210656 105 337 1.7 1.7 0.00 6.07 0.00 31 1017.9
20220626210154 105 157 0.9 5.2 0.00 6.07 0.00 30 1017.9
20220626205654 105 22 5.2 5.2 0.00 6.07 0.00 29 1017.9
20220626205154 108 337 3.5 3.5 0.00 6.07 0.00 29 1017.9
20220626204656 108 22 0.0 4.3 0.00 6.07 0.00 30 1017.9